Temperature
14 14 15 16 19 20 22 22 22 21 22 21 21 22 23 24 24 22 17 17 17 17 17 17 17 17 17 17 17 17 17 17 17 16 16 16 16 16 16 16 16 16 16 16 16 16 16 16 16
13 14 15 17 20 21 22 22 21 22 21 19 19 20 22 21 18 17 16 17 17 16 16 16 16 16 16 17 17 17 17 17 16 16 16 16 16 16 16 16 16 16 16 16 16 16 16 16 16
13 14 16 19 20 22 22 22 22 21 19 19 20 20 21 20 17 16 16 17 16 16 16 16 16 16 16 16 16 16 16 16 16 16 16 16 16 16 16 16 16 16 16 16 16 16 16 15 15
13 14 16 19 20 21 22 21 20 20 19 18 20 20 18 16 15 15 16 16 16 16 15 16 16 16 16 16 16 16 16 16 16 16 16 16 16 16 16 16 16 15 15 15 15 15 15 15 15
13 16 18 18 20 20 20 20 19 21 20 19 19 20 18 15 15 16 16 15 16 15 15 16 16 16 16 16 16 16 16 16 16 16 16 16 16 16 16 16 16 15 15 15 15 15 15 15 15
14 17 18 19 20 20 20 19 19 20 20 19 19 20 17 15 15 15 15 15 15 15 15 15 16 16 16 16 16 16 16 16 16 16 16 16 16 16 15 15 15 15 15 15 15 15 15 15 15
15 17 18 20 20 19 19 18 19 20 20 19 19 20 17 15 15 15 15 15 15 15 15 15 15 15 15 15 15 16 16 16 16 16 15 15 15 15 15 15 15 15 15 15 15 15 15 15 15
14 17 17 18 19 19 19 18 18 19 20 17 17 20 18 15 15 15 15 15 15 15 15 15 15 15 15 15 15 15 15 15 15 15 15 15 15 15 15 15 15 15 15 15 15 15 15 14 14
13 16 17 18 18 19 18 18 17 16 17 16 16 17 16 15 15 14 14 14 14 15 15 15 15 15 15 15 15 15 15 15 15 15 15 15 15 15 14 14 14 14 14 14 14 14 14 14 14
14 15 17 17 18 18 17 17 17 17 17 17 15 14 15 14 14 14 14 14 14 14 14 15 15 15 15 14 14 15 15 15 15 15 15 15 14 14 14 14 14 14 14 14 14 14 14 14 13
14 15 16 15 15 16 16 16 16 18 18 18 17 15 14 14 14 14 14 14 14 14 14 14 14 14 14 14 14 14 15 15 14 15 14 14 14 14 14 14 14 14 14 14 14 13 13 13 13
14 14 14 15 14 15 16 16 16 17 17 16 15 15 14 13 14 14 14 14 14 14 14 14 14 14 14 14 14 14 14 14 14 14 14 14 14 14 14 14 14 13 13 13 13 13 13 13 13
13 13 13 13 13 14 14 15 15 15 14 14 14 14 14 14 13 13 13 13 13 14 14 14 14 14 14 14 14 14 14 14 14 14 14 14 14 14 14 13 13 13 13 13 13 13 13 13 12
13 13 13 13 13 13 14 15 15 15 14 13 13 13 14 14 13 13 13 13 13 13 14 14 14 13 14 14 14 14 14 14 14 14 14 14 13 13 13 13 13 13 13 13 13 12 12 12 12
12 13 13 13 13 13 14 14 15 14 13 13 13 13 13 13 13 13 13 13 13 13 13 13 13 13 13 13 13 13 13 13 13 13 13 13 13 13 13 13 13 13 12 12 12 12 12 12 12
12 12 12 13 13 13 14 15 15 13 13 13 13 13 12 12 12 12 12 13 13 13 13 13 13 13 13 13 13 13 13 13 13 13 13 13 13 13 12 12 12 12 12 12 12 12 11 11 11
11 12 13 13 13 13 13 14 14 12 13 13 13 13 12 12 11 12 12 12 12 12 12 13 13 13 13 13 13 13 13 13 13 13 13 13 12 12 12 12 12 12 12 11 11 11 11 11 11
11 12 12 13 12 13 13 14 13 12 12 13 13 12 12 12 11 11 12 12 12 12 12 12 12 12 12 12 12 12 12 12 12 12 12 12 12 12 12 12 11 11 11 11 11 10 10 10 10
12 12 12 12 12 12 13 13 13 13 12 13 13 12 12 11 11 11 11 11 12 12 12 12 12 12 12 12 12 12 12 12 12 12 12 11 11 11 11 11 11 11 11 10 10 10 10 10 10
11 11 12 11 11 12 12 13 13 13 12 12 12 12 11 11 11 10 11 11 11 11 12 12 12 12 12 12 12 12 12 12 11 11 11 11 11 11 11 11 10 10 10 10 10 10 9 9 9
10 11 11 11 10 11 11 12 12 12 11 11 11 11 11 11 10 10 10 11 11 11 11 12 12 12 12 11 11 11 11 11 11 11 11 11 10 10 10 10 10 10 10 10 10 9 9 9 8
9 10 10 10 10 11 11 12 13 12 11 11 11 10 10 10 10 9 10 10 11 11 11 11 11 11 11 11 11 11 11 11 11 11 10 10 10 10 10 10 9 9 9 9 9 9 9 8 8
9 9 10 10 10 10 10 11 13 11 11 11 11 10 9 9 9 9 9 10 11 11 11 11 11 11 11 11 11 11 10 10 10 10 10 10 9 9 9 9 9 9 9 9 9 8 8 8 8
8 9 9 9 9 9 10 11 12 12 11 11 11 9 9 8 8 8 9 9 10 10 10 10 10 10 10 10 10 10 10 10 10 10 10 9 9 9 9 9 9 8 8 8 8 8 8 8 7
9 8 8 8 8 9 10 10 12 11 10 10 9 8 8 7 7 7 8 8 9 9 9 10 10 10 10 10 10 10 10 9 9 9 9 9 9 9 8 8 8 8 8 8 8 7 7 7 7
8 9 9 9 9 10 8 10 11 9 8 7 7 7 6 6 6 6 7 7 8 9 9 9 9 9 9 9 9 9 9 9 9 9 9 8 8 8 8 8 7 7 7 7 7 7 7 7 7
7 9 9 9 8 9 9 9 9 8 8 7 6 6 6 5 5 6 6 6 7 8 8 8 8 8 9 9 9 9 8 8 8 8 8 8 8 7 7 7 7 7 7 7 7 6 6 6 6
7 8 8 8 8 9 9 9 10 8 7 7 6 6 5 5 5 5 5 5 6 7 7 7 7 8 8 8 8 8 8 8 7 7 7 7 7 7 7 7 6 6 6 6 6 6 6 6 6
6 6 7 8 8 9 9 10 8 7 7 7 6 5 4 4 4 4 4 5 5 6 6 6 6 7 7 7 7 7 7 7 7 7 7 7 6 6 6 6 6 6 6 6 5 5 5 5 5
6 6 7 7 6 7 9 9 6 6 6 5 5 4 3 3 3 3 4 4 4 5 5 6 6 6 6 6 6 7 7 7 6 6 6 6 6 6 6 5 5 5 5 5 5 5 5 5 5
Wind_Speed
3 2 3 4 6 6 13 9 6 6 6 4 4 5 6 5 3 3 5 9 12 14 16 17 16 16 16 16 16 16 16 16 16 16 15 15 15 14 14 14 14 13 13 13 13 14 13 13 13
3 3 4 5 8 11 10 11 10 7 4 5 5 4 4 4 2 5 7 10 13 15 15 16 17 16 16 16 16 16 16 15 15 15 15 14 14 14 14 14 14 13 13 13 13 13 13 12 12
4 4 5 6 9 14 9 8 10 7 5 5 5 3 2 3 4 5 7 12 14 14 14 16 17 17 17 17 16 16 16 15 15 15 15 14 14 13 13 13 13 13 13 13 13 12 12 11 11
5 5 5 9 15 13 7 4 5 9 7 5 5 5 3 2 3 5 10 13 15 14 14 17 16 17 17 16 16 16 15 15 15 15 14 14 13 13 13 13 13 12 12 12 11 11 10 10 10
4 6 8 11 15 10 8 4 5 8 8 7 7 5 5 3 3 8 12 13 14 14 14 17 16 16 16 16 15 15 15 15 15 14 14 13 13 13 13 12 12 11 11 11 10 9 9 9 8
7 6 11 16 15 10 8 8 7 8 7 6 7 6 4 4 7 10 12 12 13 13 13 16 15 16 16 16 15 15 15 14 14 13 13 13 13 12 12 11 11 11 10 10 9 9 8 8 7
8 8 12 14 14 12 9 8 10 9 9 7 6 6 6 7 8 10 12 12 12 13 12 13 15 15 15 15 15 15 14 14 14 13 13 13 12 12 11 11 10 10 9 9 9 8 8 7 7
5 6 10 12 13 12 8 7 5 8 8 4 4 6 6 9 10 11 12 11 11 11 11 12 12 13 13 14 14 14 14 14 14 13 13 12 11 11 11 10 10 9 9 8 7 7 7 7 6
5 8 13 13 11 9 8 8 5 2 5 4 3 1 4 12 13 13 12 11 10 10 10 10 11 11 11 12 13 13 13 13 12 11 12 10 9 9 8 9 9 9 8 7 7 6 6 5 5
9 12 14 8 6 5 7 7 7 7 8 6 5 4 9 13 15 15 15 14 13 11 10 9 10 10 10 10 10 9 9 9 8 8 9 7 7 7 7 9 9 8 7 6 6 5 4 2 2
10 12 10 7 5 4 6 6 5 8 8 8 9 11 13 14 14 14 14 13 12 11 9 8 9 9 9 8 7 7 7 7 7 7 7 6 6 6 5 5 5 5 4 4 4 3 2 1 1
9 10 8 6 4 4 5 5 5 7 3 1 5 11 14 15 15 14 14 13 11 10 9 8 8 8 8 8 7 6 6 6 5 6 6 5 4 4 4 3 3 3 2 2 2 1 1 1 0
12 8 7 6 4 4 5 6 4 5 3 2 5 10 13 14 13 12 11 11 11 11 9 8 8 8 8 7 6 6 6 6 6 5 5 5 4 4 3 3 3 2 2 1 1 0 0 0 0
10 8 7 6 7 5 6 6 6 5 4 5 7 10 11 12 13 12 12 11 11 11 10 9 8 8 8 6 6 5 6 6 6 5 5 5 4 4 3 3 2 2 1 1 0 0 1 1 1
7 8 8 8 8 5 5 9 10 7 6 7 7 8 9 10 11 12 12 12 11 11 10 9 8 8 8 7 6 6 6 6 5 5 5 5 4 4 3 2 2 2 1 1 0 0 1 1 1
9 10 11 10 10 8 9 13 9 7 8 9 8 8 9 10 11 10 10 10 10 10 10 9 7 8 8 7 6 5 6 6 5 5 5 5 4 4 3 2 2 1 1 1 1 1 1 1 2
10 13 15 10 10 9 12 11 6 6 9 9 9 9 9 9 10 10 10 10 10 10 10 9 8 8 7 7 6 6 5 5 5 5 4 4 4 3 3 2 2 1 1 1 1 1 1 2 2
14 15 14 13 9 11 14 11 6 6 8 10 9 9 9 9 10 9 9 9 9 9 9 10 9 8 8 6 5 5 4 4 4 4 4 4 4 3 3 2 2 2 1 1 1 1 1 2 2
11 12 13 10 6 11 14 13 10 7 7 9 9 9 10 9 8 7 8 9 9 9 10 10 10 9 8 6 6 5 5 4 3 3 3 4 3 3 3 2 2 2 1 2 2 1 1 1 2
11 12 10 5 5 8 10 13 10 9 9 9 9 9 9 8 7 7 8 9 10 10 11 10 10 10 9 7 6 4 4 3 3 3 3 3 3 3 2 2 2 2 2 2 2 2 2 1 1
12 13 11 7 4 5 6 9 11 9 8 7 8 7 8 8 8 8 8 9 9 10 11 10 10 10 10 8 6 5 4 3 3 3 3 3 2 2 2 2 2 2 2 2 2 2 3 2 2
11 9 9 9 8 5 7 7 10 10 9 9 8 8 7 7 7 7 8 8 9 9 8 9 10 10 10 9 8 9 6 5 5 4 3 3 3 3 2 2 2 2 2 2 2 3 3 3 3
7 7 8 8 7 5 8 7 6 7 9 11 9 8 7 6 6 7 7 7 7 7 7 8 9 9 9 9 9 9 7 5 4 4 4 3 3 3 2 2 2 2 2 2 2 3 3 3 3
9 9 6 4 5 8 11 10 7 7 9 8 8 7 5 4 4 5 5 5 6 6 7 7 9 9 9 9 9 9 8 6 6 6 5 4 2 2 2 2 2 2 1 2 2 3 4 4 4
11 10 5 6 7 8 8 9 7 2 3 5 6 5 4 3 3 4 5 5 6 7 7 8 9 9 9 9 8 8 8 7 7 6 5 4 3 2 2 2 2 2 2 2 2 3 4 4 5
13 13 8 7 8 5 7 9 3 2 1 1 1 1 1 1 1 3 4 4 5 6 7 8 8 8 8 8 7 7 6 5 4 5 4 4 3 2 2 2 2 2 2 2 3 3 4 4 4
9 10 3 1 2 4 6 5 3 2 2 2 2 2 1 1 1 2 3 3 4 5 6 7 7 7 7 7 6 6 6 5 4 4 4 3 3 2 2 2 2 2 2 3 3 3 4 4 4
4 6 4 5 6 6 7 7 5 4 3 2 2 1 2 2 2 3 3 3 3 4 4 5 5 6 6 6 5 4 5 4 4 4 4 3 2 2 2 2 2 3 3 3 3 3 3 4 4
6 6 4 4 4 5 6 4 1 3 2 2 2 1 1 2 3 3 3 4 4 4 4 4 4 4 5 5 5 5 4 4 4 3 3 3 2 2 2 2 2 3 3 3 3 4 4 4 4
4 6 6 6 4 4 4 2 2 2 2 2 2 2 2 3 3 4 4 4 4 4 4 4 4 4 4 4 4 4 4 4 4 3 3 3 2 2 2 2 2 3 3 3 4 4 4 5 5
Wind_Direction
202 202 198 198 204 221 230 215 207 184 189 192 182 191 202 193 187 122 111 145 143 146 144 142 139 136 132 128 126 127 127 125 122 120 118 117 115 114 111 108 106 102 99 96 94 95 93 91 89
191 180 191 204 220 219 222 213 205 195 159 149 168 190 190 184 72 101 136 145 147 144 144 144 138 136 132 129 127 127 127 124 122 121 118 117 116 114 112 108 105 102 98 96 95 94 92 91 90
176 200 199 202 221 224 217 198 203 183 163 169 165 184 193 143 128 128 135 148 146 143 144 138 138 136 133 131 129 128 126 125 123 121 119 117 115 113 111 109 105 102 100 98 96 94 94 92 91
177 182 207 222 221 223 224 165 172 177 180 191 175 154 141 92 119 130 140 150 146 143 142 138 138 136 133 131 131 129 128 126 125 123 121 118 117 114 111 109 107 104 102 100 97 95 95 94 91
197 195 203 220 224 219 219 206 180 183 178 179 186 165 140 108 118 138 146 151 147 142 139 139 136 134 133 131 131 130 129 127 126 124 122 121 118 115 113 112 110 108 105 103 101 98 94 94 93
185 204 214 219 216 214 213 206 198 199 184 177 183 168 134 124 139 143 147 149 146 142 139 138 131 130 131 129 128 128 127 126 126 125 124 122 120 117 114 113 113 111 108 105 104 103 99 96 93
201 203 222 223 217 214 207 196 208 202 195 184 179 167 146 145 142 145 146 145 144 142 141 140 141 135 129 127 127 126 125 124 123 122 121 121 120 119 116 114 113 111 109 108 105 103 102 98 93
217 211 221 219 217 215 190 185 207 212 203 164 188 186 168 157 150 146 142 142 141 142 142 142 142 141 138 132 124 122 123 122 120 118 118 119 120 119 118 118 114 112 109 108 105 103 102 101 98
202 218 220 213 214 208 182 185 180 190 173 170 181 146 125 143 151 149 146 146 146 145 146 145 143 141 138 134 128 125 123 122 123 122 121 127 129 126 123 112 113 112 110 108 106 104 103 109 108
199 221 223 215 215 195 180 190 175 176 184 185 173 142 137 150 159 162 163 161 159 154 151 151 147 143 140 135 137 135 131 132 133 134 136 135 128 120 116 109 108 109 112 113 109 112 122 139 125
203 224 220 213 210 194 179 180 183 192 200 200 189 168 158 163 168 171 171 168 163 157 151 151 148 146 143 138 138 133 132 132 132 133 137 133 128 126 125 126 124 124 129 126 126 142 125 117 94
207 219 216 208 199 198 190 181 190 212 206 131 175 166 167 173 177 178 175 169 162 160 156 153 150 149 146 142 139 139 137 138 135 137 139 138 131 130 128 128 126 133 132 125 131 122 116 128 140
210 204 208 211 203 206 204 211 217 225 232 164 152 164 174 179 181 180 175 169 166 165 160 156 153 153 149 144 142 143 143 142 139 137 140 141 139 134 130 130 133 131 130 141 135 142 107 266 301
208 201 202 210 213 219 216 226 223 222 192 168 164 171 179 182 182 178 177 175 174 171 166 160 156 153 153 153 151 146 145 141 143 143 146 147 142 140 142 136 132 135 138 148 191 266 275 292 295
188 200 215 217 212 208 211 233 224 214 190 186 182 180 182 184 184 186 185 182 180 175 169 164 159 157 157 155 152 148 149 147 145 146 152 151 147 148 149 146 143 141 153 165 213 247 277 291 285
188 204 216 213 209 204 210 232 212 198 197 200 196 189 186 187 191 190 186 183 180 175 169 165 162 163 162 156 153 150 153 151 150 152 155 155 153 155 155 154 146 147 162 183 220 261 271 281 286
196 211 214 205 201 199 211 233 209 197 202 205 203 198 193 191 195 194 190 186 181 177 171 167 167 165 162 156 152 150 149 149 151 155 156 157 159 161 160 156 151 165 174 195 230 263 279 286 297
200 208 210 207 193 202 213 225 207 205 211 211 208 205 201 200 200 196 193 189 183 180 176 173 171 168 160 154 150 145 145 147 151 154 153 159 164 169 168 164 167 181 198 214 231 252 275 292 303
199 202 207 208 197 206 218 227 224 218 219 217 212 210 208 208 201 192 192 189 184 181 180 179 176 171 166 162 163 165 168 162 157 152 157 164 165 173 179 179 180 196 218 235 243 247 252 285 304
200 201 203 196 189 208 222 235 234 226 224 223 216 213 212 209 200 193 188 188 189 187 186 184 182 177 176 174 168 166 159 164 160 156 158 160 161 168 184 193 201 208 220 227 232 232 245 263 272
204 205 199 185 174 203 215 234 222 217 219 222 221 219 218 213 208 199 195 192 190 191 190 188 185 181 179 172 158 143 137 141 163 171 171 174 175 177 191 208 214 217 225 229 229 231 236 246 251
205 204 192 180 184 202 204 231 217 208 211 215 218 218 221 219 217 208 202 197 194 192 189 189 184 181 178 173 172 171 177 184 190 183 178 177 181 186 190 202 219 224 229 231 232 234 242 242 245
189 169 183 189 200 214 209 231 222 193 213 214 214 216 221 223 220 212 207 202 196 189 186 185 181 179 177 179 180 184 189 187 173 170 175 179 179 184 186 196 212 234 242 239 237 236 238 239 245
150 137 135 173 200 225 211 215 230 200 211 209 211 216 222 226 226 219 203 194 186 180 179 179 178 179 178 180 183 189 188 181 173 178 180 183 182 183 184 197 209 226 247 253 251 245 241 243 248
172 158 161 183 202 222 189 214 233 181 213 220 218 222 226 228 220 206 189 183 177 175 174 176 175 177 178 180 184 187 188 186 186 185 187 187 189 195 197 208 221 227 243 254 256 247 245 247 250
188 189 195 197 202 198 193 219 210 78 74 180 190 209 210 203 193 188 183 180 175 173 171 172 173 174 175 179 182 184 184 185 185 186 187 193 196 195 198 219 232 238 244 255 259 258 255 251 252
180 199 212 183 172 197 202 219 236 146 128 122 124 109 98 115 118 145 158 162 163 165 168 170 170 170 173 175 174 177 178 178 175 176 180 187 189 185 194 215 232 243 251 261 266 263 264 263 258
192 168 171 184 186 213 212 220 207 181 178 139 117 104 81 86 93 103 122 131 139 149 152 157 165 167 169 170 169 170 172 171 168 168 172 174 182 189 198 216 237 250 260 264 264 267 272 270 269
164 177 187 187 223 218 215 209 121 183 167 148 114 88 73 86 95 95 100 106 113 116 123 132 145 149 154 158 160 160 160 161 162 165 169 171 179 189 204 223 242 253 262 266 266 268 272 274 277
202 194 191 195 202 227 231 201 68 144 137 127 99 69 69 81 87 90 93 101 106 110 113 118 124 133 142 148 150 150 149 151 155 159 165 170 178 187 208 225 242 255 261 265 266 272 274 273 276
Height
1511 1513 1515 1519 1518 1513 1506 1502 1503 1505 1507 1509 1510 1510 1508 1509 1511 1517 1518 1518 1520 1524 1526 1529 1532 1534 1536 1538 1539 1541 1542 1543 1544 1545 1546 1547 1547 1548 1549 1549 1549 1550 1550 1550 1550 1550 1550 1550 1550
1510 1513 1517 1518 1511 1508 1502 1499 1503 1502 1506 1509 1511 1511 1510 1511 1514 1515 1515 1517 1521 1524 1527 1529 1532 1535 1537 1539 1540 1542 1543 1544 1545 1546 1547 1548 1548 1549 1550 1550 1550 1551 1551 1551 1551 1551 1551 1551 1551
1510 1513 1516 1512 1506 1499 1496 1498 1499 1504 1507 1509 1510 1511 1511 1512 1514 1514 1515 1518 1521 1525 1528 1530 1533 1535 1537 1539 1541 1542 1544 1545 1546 1547 1548 1549 1549 1550 1551 1551 1551 1552 1552 1552 1552 1552 1552 1552 1552
1510 1514 1514 1508 1500 1496 1495 1498 1501 1504 1507 1508 1509 1510 1512 1513 1513 1514 1515 1519 1522 1526 1528 1530 1533 1536 1538 1540 1542 1543 1544 1546 1547 1548 1549 1550 1550 1551 1551 1552 1552 1552 1553 1553 1553 1553 1553 1552 1552
1509 1511 1507 1502 1497 1496 1499 1501 1503 1502 1504 1506 1508 1508 1511 1512 1512 1514 1516 1520 1523 1526 1529 1531 1534 1536 1539 1540 1542 1544 1545 1546 1548 1549 1549 1550 1551 1551 1552 1552 1553 1553 1553 1553 1553 1553 1553 1553 1553
1509 1506 1500 1495 1494 1496 1498 1501 1502 1502 1503 1506 1507 1508 1511 1511 1512 1514 1517 1520 1524 1526 1529 1531 1534 1536 1539 1541 1542 1544 1546 1547 1548 1549 1550 1550 1551 1552 1552 1552 1553 1553 1553 1553 1553 1553 1553 1553 1552
1505 1501 1493 1490 1491 1494 1497 1500 1501 1500 1502 1505 1506 1507 1510 1511 1512 1515 1518 1521 1524 1527 1529 1532 1534 1537 1539 1541 1543 1544 1546 1547 1548 1549 1550 1551 1551 1552 1552 1553 1553 1553 1553 1553 1553 1553 1553 1553 1552
1502 1500 1494 1491 1491 1491 1496 1499 1500 1501 1501 1505 1506 1506 1508 1511 1512 1515 1518 1521 1524 1526 1529 1532 1534 1536 1539 1541 1543 1544 1546 1547 1548 1549 1550 1551 1552 1552 1552 1553 1553 1553 1553 1553 1553 1553 1553 1552 1552
1501 1499 1491 1489 1490 1490 1495 1497 1500 1501 1502 1504 1505 1506 1507 1508 1511 1514 1517 1520 1523 1526 1528 1531 1534 1536 1538 1540 1542 1544 1546 1547 1548 1549 1550 1551 1552 1552 1552 1553 1553 1553 1553 1553 1553 1553 1552 1552 1552
1498 1493 1487 1489 1491 1491 1494 1495 1498 1500 1500 1502 1504 1505 1506 1508 1510 1513 1516 1519 1522 1525 1528 1530 1533 1535 1537 1540 1542 1543 1545 1547 1548 1549 1550 1551 1552 1552 1552 1552 1553 1553 1553 1553 1552 1552 1552 1552 1551
1493 1489 1489 1492 1493 1494 1494 1496 1497 1497 1497 1499 1501 1503 1505 1508 1510 1513 1516 1519 1521 1524 1526 1529 1532 1534 1537 1539 1541 1543 1544 1546 1547 1548 1549 1550 1551 1551 1552 1552 1552 1552 1552 1552 1552 1552 1551 1551 1551
1490 1489 1491 1492 1494 1494 1495 1495 1497 1497 1497 1499 1500 1502 1504 1506 1509 1512 1515 1518 1520 1523 1525 1528 1531 1533 1536 1538 1540 1542 1544 1545 1546 1547 1548 1549 1550 1551 1551 1551 1551 1551 1551 1551 1551 1551 1551 1550 1550
1488 1489 1491 1493 1494 1494 1495 1495 1495 1496 1497 1498 1499 1501 1503 1505 1508 1512 1515 1517 1519 1522 1524 1527 1530 1532 1534 1537 1539 1541 1543 1544 1545 1546 1547 1548 1549 1549 1550 1550 1550 1550 1550 1550 1550 1550 1550 1549 1549
1485 1488 1490 1492 1493 1494 1494 1494 1495 1495 1496 1497 1499 1500 1502 1504 1507 1510 1512 1515 1517 1520 1523 1526 1528 1531 1533 1536 1538 1540 1541 1543 1544 1545 1546 1547 1548 1548 1548 1549 1549 1549 1549 1549 1549 1549 1548 1548 1547
1486 1488 1489 1490 1491 1492 1494 1492 1492 1494 1495 1497 1498 1500 1501 1503 1505 1508 1510 1513 1516 1519 1521 1524 1527 1529 1532 1534 1536 1538 1540 1541 1543 1544 1545 1545 1546 1547 1547 1547 1547 1547 1547 1547 1547 1547 1547 1546 1546
1484 1485 1485 1485 1488 1491 1494 1486 1488 1492 1494 1495 1497 1498 1500 1502 1504 1506 1509 1512 1514 1517 1520 1522 1525 1528 1530 1533 1535 1537 1538 1540 1541 1542 1543 1543 1544 1545 1545 1546 1546 1546 1546 1545 1545 1545 1545 1544 1544
1480 1478 1477 1482 1485 1487 1488 1484 1487 1490 1491 1493 1495 1496 1498 1500 1502 1504 1507 1509 1512 1515 1518 1520 1523 1526 1528 1531 1533 1535 1536 1538 1539 1540 1541 1541 1542 1543 1543 1544 1544 1544 1544 1544 1543 1543 1543 1542 1541
1471 1472 1475 1477 1481 1484 1484 1482 1486 1488 1490 1490 1492 1494 1496 1498 1500 1502 1504 1507 1510 1513 1515 1518 1521 1524 1526 1528 1530 1532 1534 1536 1537 1538 1539 1540 1540 1541 1541 1541 1542 1542 1542 1541 1541 1541 1540 1540 1539
1468 1471 1473 1475 1481 1482 1481 1481 1483 1486 1488 1488 1490 1491 1493 1495 1498 1499 1501 1504 1507 1510 1513 1515 1518 1521 1523 1526 1528 1530 1531 1533 1534 1535 1537 1537 1538 1538 1539 1539 1539 1539 1539 1539 1539 1538 1538 1537 1536
1470 1471 1473 1478 1481 1481 1480 1480 1481 1483 1485 1486 1487 1489 1491 1493 1495 1496 1498 1501 1503 1506 1509 1512 1515 1518 1520 1523 1525 1527 1529 1530 1532 1533 1534 1535 1535 1536 1536 1537 1537 1537 1537 1537 1536 1536 1535 1534 1534
1470 1470 1471 1476 1480 1481 1481 1477 1477 1480 1483 1485 1486 1487 1488 1490 1491 1493 1495 1497 1500 1502 1505 1508 1511 1514 1517 1519 1522 1524 1526 1528 1529 1530 1531 1532 1533 1533 1534 1534 1534 1534 1534 1534 1533 1533 1532 1532 1531
1469 1470 1473 1475 1477 1477 1478 1472 1468 1473 1478 1481 1482 1484 1485 1487 1489 1490 1491 1494 1496 1499 1502 1505 1508 1511 1513 1516 1518 1521 1522 1524 1525 1527 1528 1529 1530 1530 1531 1531 1531 1531 1531 1531 1530 1530 1530 1529 1528
1467 1472 1474 1475 1475 1478 1477 1475 1463 1471 1473 1475 1478 1480 1482 1484 1485 1486 1488 1490 1492 1495 1498 1501 1504 1507 1510 1512 1515 1518 1520 1522 1523 1524 1525 1526 1527 1527 1528 1528 1528 1528 1528 1528 1527 1527 1527 1526 1525
1470 1474 1476 1477 1476 1479 1470 1471 1460 1464 1466 1470 1474 1477 1479 1481 1482 1483 1485 1487 1489 1492 1495 1497 1500 1503 1506 1509 1512 1514 1516 1518 1519 1521 1522 1523 1524 1524 1525 1525 1525 1525 1525 1525 1524 1524 1523 1523 1522
1467 1469 1475 1477 1476 1468 1468 1468 1461 1463 1468 1470 1473 1475 1476 1478 1479 1480 1482 1483 1486 1488 1491 1494 1497 1500 1503 1506 1509 1511 1513 1515 1516 1518 1519 1520 1521 1521 1521 1522 1522 1522 1522 1521 1521 1520 1520 1519 1519
1462 1461 1463 1464 1464 1463 1472 1465 1461 1469 1471 1472 1473 1474 1475 1476 1477 1477 1479 1481 1483 1486 1488 1491 1494 1497 1500 1503 1505 1508 1510 1512 1513 1515 1516 1517 1518 1518 1518 1519 1519 1519 1519 1518 1518 1517 1516 1516 1515
1462 1460 1461 1463 1465 1464 1462 1462 1466 1469 1470 1471 1473 1474 1474 1475 1475 1476 1477 1479 1481 1483 1486 1488 1491 1494 1497 1500 1502 1505 1507 1508 1510 1512 1513 1514 1515 1515 1516 1516 1516 1516 1516 1515 1514 1513 1513 1512 1512
1462 1462 1465 1464 1463 1457 1457 1458 1456 1464 1467 1470 1472 1473 1473 1474 1474 1475 1476 1478 1480 1482 1484 1487 1489 1492 1494 1497 1499 1502 1504 1506 1507 1509 1510 1511 1512 1512 1512 1513 1513 1513 1513 1512 1511 1510 1509 1509 1508
1464 1465 1462 1460 1458 1454 1454 1455 1462 1465 1468 1470 1472 1473 1473 1474 1474 1475 1475 1477 1479 1481 1483 1485 1487 1490 1492 1494 1497 1499 1501 1502 1504 1506 1507 1508 1509 1509 1509 1510 1510 1510 1509 1508 1508 1507 1506 1505 1504
1462 1461 1461 1461 1465 1459 1452 1460 1467 1468 1470 1471 1473 1474 1474 1474 1474 1475 1475 1476 1478 1479 1481 1483 1485 1488 1490 1492 1494 1496 1498 1500 1501 1503 1504 1505 1505 1506 1506 1506 1506 1506 1505 1505 1504 1503 1502 1501 1500